Peoria, IL

10:28 PM CDT on September 22, 2017 (GMT -0500)
Greater Peoria Regional

Weather History for KPIA - May, 2013

Change the Weather History Date:

Tuesday, May 21, 2013

  Actual Average Record
Temperature  
Mean Temperature 72 °F 64 °F  
Max Temperature 81 °F 75 °F 94 °F (1934)
Min Temperature 62 °F 53 °F 33 °F (2002)
Degree Days  
Heating Degree Days 0 4  
Month to date heating degree days 79 120  
Since 1 July heating degree days 5771 5785  
Cooling Degree Days 7 3  
Month to date cooling degree days 69 33  
Year to date cooling degree days 78 47  
Growing Degree Days 22 (Base 50)    
Moisture  
Dew Point 61 °F    
Average Humidity 73    
Maximum Humidity 93    
Minimum Humidity 52    
Precipitation  
Precipitation 0.00 in 0.15 in 0.82 in (1974)
Month to date precipitation 4.61 2.98  
Year to date precipitation 21.72 12.98  
Snow  
Snow 0.00 in 0.00 in 0.00 in ()
Month to date snowfall 0.0 0.0  
Since 1 July snowfall 22.7 24.6  
Snow Depth 0.00 in    
Sea Level Pressure  
Sea Level Pressure 29.70 in    
Wind  
Wind Speed 11 mph (SSW)    
Max Wind Speed 22 mph    
Max Gust Speed 26 mph    
Visibility 10 miles    
Events      
T = Trace of Precipitation, MM = Missing Value Source: NWS Daily Summary

Daily Weather History Graph

Daily Weather History Graph

Search for Another Location

Airport or City:

Trip Planner

Search our weather history database for the weather conditions in past years. The results will help you decide how hot, cold, wet, or windy it might be!

Date:

Astronomy

May. 21, 2013 Rise Set
Actual Time 5:36 AM CDT 8:14 PM CDT
Civil Twilight 5:04 AM CDT 8:46 PM CDT
Nautical Twilight 4:25 AM CDT 9:26 PM CDT
Astronomical Twilight 3:40 AM CDT 10:11 PM CDT
Moon 4:27 PM CDT (5/21) 3:05 AM CDT (5/21)
Length of Visible Light 15h 41m
Length of Day
14h 38m
Waxing Gibbous, 84% of the Moon is Illuminated
May 21
Waxing Gibbous
May 24
Full
May 31
Last Quarter
Jun 8
New
Jun 16
First Quarter

Hourly Weather History & Observations

Time (CDT) Temp. Heat Index Dew Point Humidity Pressure Visibility Wind Dir Wind Speed Gust Speed Precip Events Conditions
12:54 AM 64.0 °F - 60.1 °F 87% 29.71 in 10.0 mi South 19.6 mph 26.5 mph 0.00 in   Partly Cloudy
1:54 AM 64.0 °F - 60.1 °F 87% 29.70 in 10.0 mi SSW 16.1 mph - N/A   Clear
2:54 AM 63.0 °F - 60.1 °F 90% 29.70 in 10.0 mi SSW 11.5 mph - N/A   Clear
3:54 AM 62.1 °F - 60.1 °F 93% 29.71 in 10.0 mi South 9.2 mph - N/A   Clear
4:54 AM 63.0 °F - 60.1 °F 90% 29.71 in 10.0 mi South 10.4 mph - N/A   Clear
5:54 AM 63.0 °F - 60.1 °F 90% 29.70 in 10.0 mi South 9.2 mph - N/A   Clear
6:54 AM 64.9 °F - 61.0 °F 87% 29.70 in 10.0 mi SSW 13.8 mph - N/A   Clear
7:54 AM 66.9 °F - 62.1 °F 84% 29.71 in 10.0 mi SSW 12.7 mph - N/A   Clear
8:54 AM 68.0 °F - 62.1 °F 81% 29.72 in 10.0 mi SSW 17.3 mph 23.0 mph N/A   Mostly Cloudy
9:21 AM 69.1 °F - 63.0 °F 81% 29.73 in 10.0 mi SSW 16.1 mph - N/A   Mostly Cloudy
9:54 AM 70.0 °F - 62.1 °F 76% 29.72 in 10.0 mi SW 16.1 mph - N/A   Overcast
10:43 AM 73.0 °F - 64.0 °F 73% 29.73 in 10.0 mi SW 12.7 mph - N/A   Partly Cloudy
10:54 AM 73.9 °F - 64.0 °F 71% 29.72 in 10.0 mi SW 13.8 mph - N/A   Partly Cloudy
11:54 AM 75.9 °F - 59.0 °F 56% 29.70 in 10.0 mi SW 17.3 mph - N/A   Clear
12:54 PM 78.1 °F - 60.1 °F 54% 29.71 in 10.0 mi SSW 16.1 mph - N/A   Clear
1:54 PM 79.0 °F - 60.1 °F 52% 29.71 in 10.0 mi SSW 19.6 mph 26.5 mph N/A   Clear
2:54 PM 79.0 °F - 59.0 °F 50% 29.70 in 10.0 mi WSW 17.3 mph 23.0 mph N/A   Clear
3:54 PM 81.0 °F 81.9 °F 62.1 °F 52% 29.68 in 10.0 mi SW 13.8 mph 21.9 mph N/A   Partly Cloudy
4:54 PM 80.1 °F 81.2 °F 62.1 °F 54% 29.67 in 10.0 mi SW 16.1 mph - N/A   Scattered Clouds
5:54 PM 79.0 °F - 61.0 °F 54% 29.65 in 10.0 mi SW 12.7 mph - N/A   Clear
6:54 PM 77.0 °F - 61.0 °F 58% 29.67 in 10.0 mi SW 10.4 mph - N/A   Mostly Cloudy
7:54 PM 73.9 °F - 62.1 °F 66% 29.68 in 10.0 mi SW 5.8 mph - N/A   Scattered Clouds
8:54 PM 73.0 °F - 62.1 °F 68% 29.68 in 10.0 mi Calm Calm - N/A   Scattered Clouds
9:54 PM 71.1 °F - 62.1 °F 73% 29.68 in 10.0 mi SW 3.5 mph - N/A   Mostly Cloudy
10:54 PM 69.1 °F - 62.1 °F 78% 29.67 in 9.0 mi Calm Calm - N/A   Scattered Clouds
11:54 PM 69.1 °F - 61.0 °F 75% 29.68 in 10.0 mi Calm Calm - N/A   Scattered Clouds